Regional Weather Roundup
Issued by NWS New Orleans/Baton Rouge, LA

Home | Current Version | Previous Version | Text Only | Print | Product List | Glossary Off
Versions: 1 2 3 4 5 6 7 8 9 10 11 12 13 14 15 16 17 18 19 20 21 22 23 24 25 26 27 28 29 30 31 32 33 34 35 36 37 38 39 40 41 42 43 44 45 46 47 48 49 50

639
ASUS44 KLIX 281310
RWRLIX
NEW ORLEANS REGIONAL WEATHER ROUNDUP
NATIONAL WEATHER SERVICE NEW ORLEANS LA
700 AM CST WED JAN 28 2015

NOTE: "FAIR" INDICATES FEW OR NO CLOUDS BELOW 12,000 FEET WITH NO
      SIGNIFICANT WEATHER AND/OR OBSTRUCTIONS TO VISIBILITY.
      SKY/WX - SKY CONDITION AND SIGNIFICANT WEATHER.
      TMP - AIR TEMPERATURE.     DP    - DEWPOINT TEMPERATURE.
      RH  - RELATIVE HUMIDITY.   PRES  - PRESSURE.
      HI  - HEAT INDEX.          WCI   - WIND CHILL INDEX.

*  THESE STATIONS ARE NOT NWS OR FAA STATIONS AND ARE NOT UNDER
   NWS QUALITY CONTROL.

LAZ038-040-048-061>063-065>067-069-281400-
SOUTHEAST LOUISIANA

CITY           SKY/WX    TMP DP  RH WIND       PRES   REMARKS
N.O. AUDUBON     N/A     50  41  71 MISG        N/A
N.O. INTL ARPT CLEAR     50  37  61 E9        30.25R
N.O. LAKEFRONT CLEAR     52  39  61 E12       30.26R
N.O. DOWNTOWN*   N/A     52  36  54 NE7       30.25R
SLIDELL        CLEAR     38  35  89 NE3       30.26R
BATON ROUGE    CLEAR     42  35  76 CALM      30.25R
BOOTHVILLE     CLEAR     51  46  83 NE8       30.25R
BELLE CHASSE   CLEAR     39  36  89 NE5       30.25R
BOGALUSA*        N/A     36  33  90 CALM      30.29R
GALLIANO*      SUNNY     52  43  73 MISG      30.25R
NEW ROADS*       N/A     45  36  70 E5        30.24R
GONZALES*        N/A     43  38  82 CALM      30.25R
HAMMOND*       CLEAR     43  36  75 CALM      30.26S
HOUMA*         CLEAR     43  37  81 NE5       30.24R
PORT FOURCHON* SUNNY     55  46  71 NE9G17    30.27R

$$

MSZ070-080>082-281400-
SOUTHERN MISSISSIPPI

CITY           SKY/WX    TMP DP  RH WIND       PRES   REMARKS
MCCOMB         CLEAR     43  35  73 E6        30.25R
GULFPORT       CLEAR     43  34  70 N6        30.27R
BILOXI         CLEAR     41  35  80 NE7       30.28R
PASCAGOULA     CLEAR     36  34  92 CALM      30.28R
STENNIS ARPT*  CLEAR     39  34  81 CALM      30.28

$$

COASTAL OBSERVATIONS
LAKE AND NEARSHORE STATIONS

STATION/POSITION TIME  TEMP    WIND        PRES    WAVE
                       AIR SEA DIR/SP/G            HT/PER
                 (UTC) (F)     (DEG/KT/KT) (MB)    (FT/S)
PASCAGOULA       1300   44      30/  5/  8 1024.4
WAVELAND YACHT   1300   46      60/  9/ 10 1024.2
GRAND ISLE       1300   54 60   70/  8/ 11 1024.2
SOUTHWEST PASS   1300   49 45   40/ 11/ 12 1023.9
NEW CANAL        1300   51 53   80/  9/ 12 1024.6
SHELL BEACH      1300   52 54   70/ 12/ 13 1024.4

OFFSHORE STATIONS

STATION/POSITION TIME  TEMP    WIND        PRES    WAVE
                       AIR SEA DIR/SP/G            HT/PER
                 (UTC) (F)     (DEG/KT/KT) (MB)    (FT/S)
64 S DAUPHIN ISL 1223   60 66   50/ 16/ 17 1024.0    3/ 4

$$




USA.gov is the U.S. government's official web portal to all federal, state and local government web resources and services.